Content
SEND FEEDBACK

Daily
Averages
Monthly
Summary
Mexico

CANCUN, QUINTANA ROO


Home > North America > Mexico > Quintana Roo
Elevation: 9 meters     Latitude: 21 09N     Longitude: 086 49W

WEATHER
 
SELECT A DAY
Number of Records: 163,677;   Date Range: 1/1/95 - 7/23/14
 
SHARE

PRINT THIS DATA

[ ← Previous Day ]
WEATHER ALMANAC - 17 JANUARY, 2014
[ Next Day → ]
[ °F ]   °C
Weather ElementAverageHighLow
Temperature18.8 °C25 °C (11:46 am)13 °C (3:47 am)
Dewpoint14.1 °C16 °C (8:47 am)12 °C (1:44 am)
Humidity75.9 %94 % (3:47 am)53 % (9:42 am)
Barometer1019.6 hPa1021.7 hPa (9:43 pm)1016.9 hPa (2:48 am)
Wind Speed7.1 km/h14.8 km/h (2:45 pm)
Weather ElementAverage
Visibility11.3 km
Wind DirectionSSW (193.5 °)

Weather ElementTotal
Precipitation---
Cooling Degree Days0.7 (Base 18.3)
Growing Degree Days9 (Base 10)
Averaged from 23 records on 17 January, 2014
WEATHER CONDITIONS BREAKOUT
WIND DIRECTION BREAKOUT
WEATHER BY HOUR - 17 JANUARY, 2014
[ °F ]   °C
Local TimeTemperatureDewpointHumidityBarometerVisibilityWind DirectionWind SpeedGust SpeedPrecipitationEventsConditions
1:44 AM14 °C12 °C88 %1018.6 hPa11.3 kmNNW (330°)9.3 km/hMostly Cloudy
2:48 AM14 °C12 °C88 %1016.9 hPa11.3 kmNW (310°)9.3 km/hScattered Clouds
3:47 AM13 °C12 °C94 %1018.6 hPa11.3 kmNW (310°)9.3 km/hPartly Cloudy
4:46 AM13 °C12 °C94 %1019 hPa11.3 kmNW (320°)9.3 km/hClear
5:45 AM14 °C13 °C94 %1017.9 hPa11.3 kmCalmPartly Cloudy
6:46 AM14 °C13 °C94 %1019.6 hPa11.3 kmCalmScattered Clouds
7:48 AM17 °C14 °C82 %1020.3 hPa11.3 kmCalmMostly Cloudy
8:47 AM21 °C16 °C73 %1020 hPa11.3 kmNorth (350°)3.7 km/hMostly Cloudy
9:42 AM24 °C14 °C53 %1021 hPa11.3 kmNE (50°)11.1 km/hMostly Cloudy
10:44 AM24 °C14 °C53 %1020.7 hPa11.3 kmEast (80°)13 km/hMostly Cloudy
11:46 AM25 °C15 °C54 %1019.3 hPa11.3 kmENE (60°)13 km/hMostly Cloudy
12:46 PM23 °C14 °C57 %1019 hPa11.3 kmEast (90°)9.3 km/hMostly Cloudy
1:43 PM23 °C15 °C61 %1018.6 hPa11.3 kmNE (40°)11.1 km/hMostly Cloudy
2:45 PM24 °C15 °C57 %1017.9 hPa11.3 kmNE (40°)14.8 km/hMostly Cloudy
3:42 PM24 °C15 °C57 %1018.6 hPa11.3 kmNNE (20°)14.8 km/hScattered Clouds
4:44 PM22 °C14 °C60 %1019.3 hPa11.3 kmNorth (360°)7.4 km/hMostly Cloudy
5:49 PM20 °C14 °C68 %1019.3 hPa11.3 kmNorth (360°)5.6 km/hScattered Clouds
6:41 PM19 °C15 °C78 %1020.3 hPa11.3 kmNorth (360°)3.7 km/hScattered Clouds
7:42 PM17 °C15 °C88 %1021.3 hPa11.3 kmNW (310°)3.7 km/hScattered Clouds
8:41 PM17 °C15 °C88 %1020.3 hPa11.3 kmCalmScattered Clouds
9:43 PM18 °C15 °C83 %1021.7 hPa11.3 kmNorth (350°)5.6 km/hMostly Cloudy
10:40 PM17 °C15 °C88 %1021.7 hPa11.3 kmNorth (350°)3.7 km/hScattered Clouds
11:51 PM16 °C15 °C94 %1019.6 hPa11.3 kmNorth (360°)3.7 km/hScattered Clouds
Hourly data recorded from MMUN, located 0 kilometers away from Cancun, Quintana Roo







STORIES FROM OUR PARTNERS